<?xml version="1.0" encoding="UTF-8" standalone="no" ?>
<gpx xmlns="http://www.topografix.com/GPX/1/1" xmlns:xsi="http://www.w3.org/2001/XMLSchema-instance" xsi:schemaLocation="http://www.topografix.com/GPX/1/1 http://www.topografix.com/GPX/1/1/gpx.xsd" version="1.1" creator="VisuGPX - https://www.visugpx.com">
  <metadata>
    <name>Parcours VTT FFC Saillans</name>
  </metadata>
  <trk>
    <name><![CDATA[VTT N° 1 Bis rouge - Col des Vachons - Ferme Favier - 16 km - déniv 650 m - VAE Noire]]></name>
    <extensions>
      <line xmlns="http://www.topografix.com/GPX/gpx_style/0/2">
        <color>fc0019</color>
        <width>4</width>
      </line>
    </extensions>
    <trkseg>
      <trkpt lat="44.69696" lon="5.19973">
        <ele>268</ele>
        <time>2022-12-03T08:48:56Z</time>
        <extensions>
          <visugpx:TrkExtension xmlns:visugpx="https://www.visugpx.com/editgpx/">
            <visugpx:node>1</visugpx:node>
            </visugpx:TrkExtension>
        </extensions>
      </trkpt>
      <trkpt lat="44.69688" lon="5.19968">
        <ele>268</ele>
        <time>2022-12-03T08:48:56Z</time>
      </trkpt>
      <trkpt lat="44.69692" lon="5.19891">
        <ele>269</ele>
        <time>2022-12-03T08:48:56Z</time>
      </trkpt>
      <trkpt lat="44.69684" lon="5.19882">
        <ele>269</ele>
        <time>2022-12-03T08:48:56Z</time>
      </trkpt>
      <trkpt lat="44.69675" lon="5.19878">
        <ele>269</ele>
        <time>2022-12-03T08:48:56Z</time>
      </trkpt>
      <trkpt lat="44.69676" lon="5.19864">
        <ele>269</ele>
        <time>2022-12-03T08:48:56Z</time>
      </trkpt>
      <trkpt lat="44.69663" lon="5.19726">
        <ele>268</ele>
        <time>2022-12-03T08:48:56Z</time>
      </trkpt>
      <trkpt lat="44.69654" lon="5.19726">
        <ele>267</ele>
        <time>2022-12-03T08:48:56Z</time>
      </trkpt>
      <trkpt lat="44.69649" lon="5.1971">
        <ele>267</ele>
        <time>2022-12-03T08:48:56Z</time>
      </trkpt>
      <trkpt lat="44.69767" lon="5.19705">
        <ele>266</ele>
        <time>2022-12-03T08:48:56Z</time>
      </trkpt>
      <trkpt lat="44.69779" lon="5.19696">
        <ele>265</ele>
        <time>2022-12-03T08:48:56Z</time>
      </trkpt>
      <trkpt lat="44.69796" lon="5.19695">
        <ele>265</ele>
        <time>2022-12-03T08:48:56Z</time>
      </trkpt>
      <trkpt lat="44.69878" lon="5.19724">
        <ele>267</ele>
        <time>2022-12-03T08:48:56Z</time>
      </trkpt>
      <trkpt lat="44.69914" lon="5.19722">
        <ele>270</ele>
        <time>2022-12-03T08:48:56Z</time>
      </trkpt>
      <trkpt lat="44.69928" lon="5.19725">
        <ele>271</ele>
        <time>2022-12-03T08:48:56Z</time>
      </trkpt>
      <trkpt lat="44.6996" lon="5.19776">
        <ele>275</ele>
        <time>2022-12-03T08:48:56Z</time>
      </trkpt>
      <trkpt lat="44.69961" lon="5.19787">
        <ele>278</ele>
        <time>2022-12-03T08:48:56Z</time>
      </trkpt>
      <trkpt lat="44.69971" lon="5.19785">
        <ele>280</ele>
        <time>2022-12-03T08:48:56Z</time>
      </trkpt>
      <trkpt lat="44.69981" lon="5.19787">
        <ele>281</ele>
        <time>2022-12-03T08:48:56Z</time>
      </trkpt>
      <trkpt lat="44.70121" lon="5.19778">
        <ele>284</ele>
        <time>2022-12-03T08:48:56Z</time>
      </trkpt>
      <trkpt lat="44.70203" lon="5.198">
        <ele>286</ele>
        <time>2022-12-03T08:48:56Z</time>
      </trkpt>
      <trkpt lat="44.70243" lon="5.19789">
        <ele>287</ele>
        <time>2022-12-03T08:48:56Z</time>
      </trkpt>
      <trkpt lat="44.70337" lon="5.19803">
        <ele>290</ele>
      </trkpt>
      <trkpt lat="44.7043" lon="5.19817">
        <ele>294</ele>
        <time>2022-12-03T08:48:56Z</time>
      </trkpt>
      <trkpt lat="44.7044" lon="5.19816">
        <ele>296</ele>
        <time>2022-12-03T08:48:56Z</time>
      </trkpt>
      <trkpt lat="44.70515" lon="5.19748">
        <ele>301</ele>
        <time>2022-12-03T08:48:56Z</time>
      </trkpt>
      <trkpt lat="44.70559" lon="5.19674">
        <ele>303</ele>
        <time>2022-12-03T08:48:56Z</time>
      </trkpt>
      <trkpt lat="44.70588" lon="5.19657">
        <ele>306</ele>
        <time>2022-12-03T08:48:56Z</time>
      </trkpt>
      <trkpt lat="44.70635" lon="5.19661">
        <ele>309</ele>
        <time>2022-12-03T08:48:56Z</time>
      </trkpt>
      <trkpt lat="44.70778" lon="5.19719">
        <ele>318</ele>
        <time>2022-12-03T08:48:56Z</time>
      </trkpt>
      <trkpt lat="44.70827" lon="5.19716">
        <ele>321</ele>
        <time>2022-12-03T08:48:56Z</time>
      </trkpt>
      <trkpt lat="44.70894" lon="5.19689">
        <ele>321</ele>
        <time>2022-12-03T08:48:56Z</time>
      </trkpt>
      <trkpt lat="44.70929" lon="5.19652">
        <ele>319</ele>
        <time>2022-12-03T08:48:56Z</time>
      </trkpt>
      <trkpt lat="44.70938" lon="5.19646">
        <ele>318</ele>
        <time>2022-12-03T08:48:56Z</time>
      </trkpt>
      <trkpt lat="44.7095" lon="5.19643">
        <ele>317</ele>
        <time>2022-12-03T08:48:56Z</time>
      </trkpt>
      <trkpt lat="44.70959" lon="5.19637">
        <ele>316</ele>
        <time>2022-12-03T08:48:56Z</time>
      </trkpt>
      <trkpt lat="44.70963" lon="5.19619">
        <ele>315</ele>
        <time>2022-12-03T08:48:56Z</time>
      </trkpt>
      <trkpt lat="44.70961" lon="5.19604">
        <ele>315</ele>
        <time>2022-12-03T08:48:56Z</time>
      </trkpt>
      <trkpt lat="44.70944" lon="5.19588">
        <ele>314</ele>
        <time>2022-12-03T08:48:56Z</time>
      </trkpt>
      <trkpt lat="44.70941" lon="5.19574">
        <ele>314</ele>
        <time>2022-12-03T08:48:56Z</time>
      </trkpt>
      <trkpt lat="44.70943" lon="5.19562">
        <ele>314</ele>
        <time>2022-12-03T08:48:56Z</time>
      </trkpt>
      <trkpt lat="44.70967" lon="5.19511">
        <ele>315</ele>
        <time>2022-12-03T08:48:56Z</time>
      </trkpt>
      <trkpt lat="44.71015" lon="5.19454">
        <ele>318</ele>
        <time>2022-12-03T08:48:56Z</time>
      </trkpt>
      <trkpt lat="44.71024" lon="5.19438">
        <ele>321</ele>
        <time>2022-12-03T08:48:56Z</time>
      </trkpt>
      <trkpt lat="44.71024" lon="5.19417">
        <ele>323</ele>
        <time>2022-12-03T08:48:56Z</time>
      </trkpt>
      <trkpt lat="44.71028" lon="5.19398">
        <ele>324</ele>
        <time>2022-12-03T08:48:56Z</time>
      </trkpt>
      <trkpt lat="44.71068" lon="5.19304">
        <ele>326</ele>
        <time>2022-12-03T08:48:56Z</time>
      </trkpt>
      <trkpt lat="44.71085" lon="5.19283">
        <ele>328</ele>
        <time>2022-12-03T08:48:56Z</time>
      </trkpt>
      <trkpt lat="44.71253" lon="5.19217">
        <ele>334</ele>
      </trkpt>
      <trkpt lat="44.7142" lon="5.1915">
        <ele>337</ele>
        <time>2022-12-03T08:48:56Z</time>
      </trkpt>
      <trkpt lat="44.71477" lon="5.19111">
        <ele>339</ele>
        <time>2022-12-03T08:48:56Z</time>
      </trkpt>
      <trkpt lat="44.71493" lon="5.1911">
        <ele>340</ele>
        <time>2022-12-03T08:48:56Z</time>
      </trkpt>
      <trkpt lat="44.71511" lon="5.19116">
        <ele>346</ele>
        <time>2022-12-03T08:48:56Z</time>
      </trkpt>
      <trkpt lat="44.7152" lon="5.19123">
        <ele>346</ele>
        <time>2022-12-03T08:48:56Z</time>
      </trkpt>
      <trkpt lat="44.71632" lon="5.19151">
        <ele>351</ele>
        <time>2022-12-03T08:48:56Z</time>
      </trkpt>
      <trkpt lat="44.71648" lon="5.1916">
        <ele>354</ele>
        <time>2022-12-03T08:48:56Z</time>
      </trkpt>
      <trkpt lat="44.7168" lon="5.19194">
        <ele>358</ele>
        <time>2022-12-03T08:48:56Z</time>
      </trkpt>
      <trkpt lat="44.71691" lon="5.19196">
        <ele>360</ele>
        <time>2022-12-03T08:48:56Z</time>
      </trkpt>
      <trkpt lat="44.71697" lon="5.1919">
        <ele>362</ele>
        <time>2022-12-03T08:48:56Z</time>
      </trkpt>
      <trkpt lat="44.71704" lon="5.19207">
        <ele>364</ele>
        <time>2022-12-03T08:48:56Z</time>
      </trkpt>
      <trkpt lat="44.71694" lon="5.19216">
        <ele>366</ele>
        <time>2022-12-03T08:48:56Z</time>
      </trkpt>
      <trkpt lat="44.71622" lon="5.19198">
        <ele>366</ele>
        <time>2022-12-03T08:48:56Z</time>
      </trkpt>
      <trkpt lat="44.71606" lon="5.19204">
        <ele>366</ele>
        <time>2022-12-03T08:48:56Z</time>
      </trkpt>
      <trkpt lat="44.71573" lon="5.1923">
        <ele>367</ele>
        <time>2022-12-03T08:48:56Z</time>
      </trkpt>
      <trkpt lat="44.71567" lon="5.19244">
        <ele>369</ele>
        <time>2022-12-03T08:48:56Z</time>
      </trkpt>
      <trkpt lat="44.71558" lon="5.19254">
        <ele>371</ele>
        <time>2022-12-03T08:48:56Z</time>
      </trkpt>
      <trkpt lat="44.71551" lon="5.19256">
        <ele>372</ele>
        <time>2022-12-03T08:48:56Z</time>
      </trkpt>
      <trkpt lat="44.715" lon="5.19245">
        <ele>373</ele>
        <time>2022-12-03T08:48:56Z</time>
      </trkpt>
      <trkpt lat="44.71492" lon="5.19247">
        <ele>373</ele>
        <time>2022-12-03T08:48:56Z</time>
      </trkpt>
      <trkpt lat="44.71476" lon="5.19256">
        <ele>374</ele>
        <time>2022-12-03T08:48:56Z</time>
      </trkpt>
      <trkpt lat="44.71429" lon="5.19306">
        <ele>379</ele>
        <time>2022-12-03T08:48:56Z</time>
      </trkpt>
      <trkpt lat="44.7142" lon="5.19312">
        <ele>382</ele>
        <time>2022-12-03T08:48:56Z</time>
      </trkpt>
      <trkpt lat="44.71385" lon="5.19314">
        <ele>385</ele>
        <time>2022-12-03T08:48:56Z</time>
      </trkpt>
      <trkpt lat="44.71185" lon="5.19413">
        <ele>394</ele>
        <time>2022-12-03T08:48:56Z</time>
      </trkpt>
      <trkpt lat="44.71175" lon="5.19428">
        <ele>399</ele>
        <time>2022-12-03T08:48:56Z</time>
      </trkpt>
      <trkpt lat="44.71173" lon="5.19438">
        <ele>401</ele>
        <time>2022-12-03T08:48:56Z</time>
      </trkpt>
      <trkpt lat="44.71174" lon="5.19449">
        <ele>402</ele>
        <time>2022-12-03T08:48:56Z</time>
      </trkpt>
      <trkpt lat="44.71221" lon="5.19581">
        <ele>405</ele>
        <time>2022-12-03T08:48:56Z</time>
      </trkpt>
      <trkpt lat="44.71234" lon="5.19587">
        <ele>407</ele>
        <time>2022-12-03T08:48:56Z</time>
      </trkpt>
      <trkpt lat="44.71258" lon="5.19584">
        <ele>409</ele>
        <time>2022-12-03T08:48:56Z</time>
      </trkpt>
      <trkpt lat="44.71308" lon="5.19593">
        <ele>413</ele>
        <time>2022-12-03T08:48:56Z</time>
      </trkpt>
      <trkpt lat="44.71333" lon="5.19613">
        <ele>416</ele>
        <time>2022-12-03T08:48:56Z</time>
      </trkpt>
      <trkpt lat="44.71352" lon="5.19662">
        <ele>417</ele>
        <time>2022-12-03T08:48:56Z</time>
      </trkpt>
      <trkpt lat="44.71376" lon="5.1969">
        <ele>418</ele>
        <time>2022-12-03T08:48:56Z</time>
      </trkpt>
      <trkpt lat="44.71387" lon="5.19696">
        <ele>419</ele>
        <time>2022-12-03T08:48:56Z</time>
      </trkpt>
      <trkpt lat="44.71458" lon="5.19711">
        <ele>420</ele>
        <time>2022-12-03T08:48:56Z</time>
      </trkpt>
      <trkpt lat="44.71466" lon="5.19707">
        <ele>420</ele>
        <time>2022-12-03T08:48:56Z</time>
      </trkpt>
      <trkpt lat="44.71498" lon="5.19678">
        <ele>421</ele>
        <time>2022-12-03T08:48:56Z</time>
      </trkpt>
      <trkpt lat="44.7157" lon="5.19646">
        <ele>423</ele>
        <time>2022-12-03T08:48:56Z</time>
      </trkpt>
      <trkpt lat="44.71627" lon="5.19649">
        <ele>423</ele>
        <time>2022-12-03T08:48:56Z</time>
      </trkpt>
      <trkpt lat="44.71668" lon="5.19621">
        <ele>424</ele>
        <time>2022-12-03T08:48:56Z</time>
      </trkpt>
      <trkpt lat="44.71903" lon="5.19538">
        <ele>416</ele>
        <time>2022-12-03T08:48:56Z</time>
      </trkpt>
      <trkpt lat="44.71915" lon="5.19541">
        <ele>412</ele>
        <time>2022-12-03T08:48:56Z</time>
      </trkpt>
      <trkpt lat="44.71926" lon="5.19553">
        <ele>409</ele>
        <time>2022-12-03T08:48:56Z</time>
      </trkpt>
      <trkpt lat="44.71943" lon="5.19565">
        <ele>407</ele>
        <time>2022-12-03T08:48:56Z</time>
      </trkpt>
      <trkpt lat="44.71956" lon="5.19568">
        <ele>404</ele>
        <time>2022-12-03T08:48:56Z</time>
      </trkpt>
      <trkpt lat="44.71966" lon="5.19567">
        <ele>403</ele>
        <time>2022-12-03T08:48:56Z</time>
      </trkpt>
      <trkpt lat="44.72019" lon="5.19525">
        <ele>400</ele>
        <time>2022-12-03T08:48:56Z</time>
      </trkpt>
      <trkpt lat="44.72057" lon="5.19527">
        <ele>397</ele>
        <time>2022-12-03T08:48:56Z</time>
      </trkpt>
      <trkpt lat="44.72142" lon="5.19511">
        <ele>393</ele>
        <time>2022-12-03T08:48:56Z</time>
      </trkpt>
      <trkpt lat="44.72149" lon="5.19526">
        <ele>391</ele>
        <time>2022-12-03T08:48:56Z</time>
      </trkpt>
      <trkpt lat="44.72157" lon="5.19528">
        <ele>390</ele>
        <time>2022-12-03T08:48:56Z</time>
      </trkpt>
      <trkpt lat="44.72236" lon="5.19504">
        <ele>391</ele>
        <time>2022-12-03T08:48:56Z</time>
      </trkpt>
      <trkpt lat="44.72388" lon="5.19401">
        <ele>394</ele>
        <time>2022-12-03T08:48:56Z</time>
      </trkpt>
      <trkpt lat="44.72383" lon="5.19309">
        <ele>392</ele>
        <time>2022-12-03T08:48:56Z</time>
      </trkpt>
      <trkpt lat="44.72387" lon="5.19283">
        <ele>392</ele>
        <time>2022-12-03T08:48:56Z</time>
      </trkpt>
      <trkpt lat="44.72383" lon="5.19257">
        <ele>392</ele>
        <time>2022-12-03T08:48:56Z</time>
      </trkpt>
      <trkpt lat="44.72384" lon="5.19239">
        <ele>393</ele>
        <time>2022-12-03T08:48:56Z</time>
      </trkpt>
      <trkpt lat="44.72389" lon="5.19228">
        <ele>394</ele>
        <time>2022-12-03T08:48:56Z</time>
      </trkpt>
      <trkpt lat="44.72388" lon="5.19215">
        <ele>394</ele>
        <time>2022-12-03T08:48:56Z</time>
      </trkpt>
      <trkpt lat="44.7239" lon="5.19184">
        <ele>395</ele>
        <time>2022-12-03T08:48:56Z</time>
      </trkpt>
      <trkpt lat="44.72388" lon="5.19172">
        <ele>396</ele>
        <time>2022-12-03T08:48:56Z</time>
      </trkpt>
      <trkpt lat="44.72389" lon="5.19158">
        <ele>397</ele>
        <time>2022-12-03T08:48:56Z</time>
      </trkpt>
      <trkpt lat="44.72398" lon="5.19138">
        <ele>399</ele>
        <time>2022-12-03T08:48:56Z</time>
      </trkpt>
      <trkpt lat="44.72406" lon="5.19131">
        <ele>401</ele>
        <time>2022-12-03T08:48:56Z</time>
      </trkpt>
      <trkpt lat="44.72418" lon="5.19091">
        <ele>404</ele>
        <time>2022-12-03T08:48:56Z</time>
      </trkpt>
      <trkpt lat="44.72424" lon="5.19112">
        <ele>407</ele>
        <time>2022-12-03T08:48:56Z</time>
      </trkpt>
      <trkpt lat="44.72431" lon="5.19193">
        <ele>410</ele>
        <time>2022-12-03T08:48:56Z</time>
      </trkpt>
      <trkpt lat="44.72438" lon="5.19217">
        <ele>412</ele>
        <time>2022-12-03T08:48:56Z</time>
      </trkpt>
      <trkpt lat="44.72454" lon="5.19234">
        <ele>414</ele>
        <time>2022-12-03T08:48:56Z</time>
      </trkpt>
      <trkpt lat="44.72507" lon="5.19252">
        <ele>415</ele>
        <time>2022-12-03T08:48:56Z</time>
      </trkpt>
      <trkpt lat="44.7255" lon="5.19285">
        <ele>416</ele>
        <time>2022-12-03T08:48:56Z</time>
      </trkpt>
      <trkpt lat="44.72553" lon="5.19301">
        <ele>417</ele>
        <time>2022-12-03T08:48:56Z</time>
      </trkpt>
      <trkpt lat="44.72559" lon="5.19322">
        <ele>417</ele>
        <time>2022-12-03T08:48:56Z</time>
      </trkpt>
      <trkpt lat="44.7257" lon="5.19336">
        <ele>417</ele>
        <time>2022-12-03T08:48:56Z</time>
      </trkpt>
      <trkpt lat="44.72632" lon="5.19352">
        <ele>416</ele>
        <time>2022-12-03T08:48:56Z</time>
      </trkpt>
      <trkpt lat="44.72659" lon="5.19368">
        <ele>415</ele>
        <time>2022-12-03T08:48:56Z</time>
      </trkpt>
      <trkpt lat="44.72672" lon="5.19368">
        <ele>413</ele>
        <time>2022-12-03T08:48:56Z</time>
      </trkpt>
      <trkpt lat="44.72681" lon="5.19357">
        <ele>412</ele>
        <time>2022-12-03T08:48:56Z</time>
      </trkpt>
      <trkpt lat="44.72696" lon="5.19304">
        <ele>411</ele>
        <time>2022-12-03T08:48:56Z</time>
      </trkpt>
      <trkpt lat="44.72704" lon="5.19292">
        <ele>410</ele>
        <time>2022-12-03T08:48:56Z</time>
      </trkpt>
      <trkpt lat="44.72714" lon="5.19295">
        <ele>409</ele>
        <time>2022-12-03T08:48:56Z</time>
      </trkpt>
      <trkpt lat="44.7273" lon="5.19322">
        <ele>407</ele>
        <time>2022-12-03T08:48:56Z</time>
      </trkpt>
      <trkpt lat="44.72737" lon="5.19326">
        <ele>406</ele>
        <time>2022-12-03T08:48:56Z</time>
      </trkpt>
      <trkpt lat="44.72746" lon="5.19326">
        <ele>405</ele>
        <time>2022-12-03T08:48:56Z</time>
      </trkpt>
      <trkpt lat="44.7283" lon="5.19288">
        <ele>405</ele>
        <time>2022-12-03T08:48:56Z</time>
      </trkpt>
      <trkpt lat="44.72841" lon="5.19289">
        <ele>404</ele>
        <time>2022-12-03T08:48:56Z</time>
      </trkpt>
      <trkpt lat="44.7285" lon="5.193">
        <ele>404</ele>
        <time>2022-12-03T08:48:56Z</time>
      </trkpt>
      <trkpt lat="44.7285" lon="5.19313">
        <ele>403</ele>
        <time>2022-12-03T08:48:56Z</time>
      </trkpt>
      <trkpt lat="44.72865" lon="5.19285">
        <ele>404</ele>
        <time>2022-12-03T08:48:56Z</time>
      </trkpt>
      <trkpt lat="44.72874" lon="5.19285">
        <ele>404</ele>
        <time>2022-12-03T08:48:56Z</time>
      </trkpt>
      <trkpt lat="44.72895" lon="5.193">
        <ele>404</ele>
        <time>2022-12-03T08:48:56Z</time>
      </trkpt>
      <trkpt lat="44.72918" lon="5.19333">
        <ele>404</ele>
        <time>2022-12-03T08:48:56Z</time>
      </trkpt>
      <trkpt lat="44.72921" lon="5.19342">
        <ele>405</ele>
        <time>2022-12-03T08:48:56Z</time>
      </trkpt>
      <trkpt lat="44.72929" lon="5.19346">
        <ele>405</ele>
        <time>2022-12-03T08:48:56Z</time>
      </trkpt>
      <trkpt lat="44.72938" lon="5.19358">
        <ele>406</ele>
        <time>2022-12-03T08:48:56Z</time>
      </trkpt>
      <trkpt lat="44.72948" lon="5.19359">
        <ele>407</ele>
        <time>2022-12-03T08:48:56Z</time>
      </trkpt>
      <trkpt lat="44.72981" lon="5.19353">
        <ele>408</ele>
        <time>2022-12-03T08:48:56Z</time>
      </trkpt>
      <trkpt lat="44.73191" lon="5.19383">
        <ele>421</ele>
        <time>2022-12-03T08:48:56Z</time>
      </trkpt>
      <trkpt lat="44.73214" lon="5.19378">
        <ele>427</ele>
        <time>2022-12-03T08:48:56Z</time>
      </trkpt>
      <trkpt lat="44.73275" lon="5.19377">
        <ele>433</ele>
        <time>2022-12-03T08:48:56Z</time>
      </trkpt>
      <trkpt lat="44.7331" lon="5.1939">
        <ele>438</ele>
        <time>2022-12-03T08:48:56Z</time>
      </trkpt>
      <trkpt lat="44.73339" lon="5.19452">
        <ele>464</ele>
        <time>2022-12-03T08:48:56Z</time>
      </trkpt>
      <trkpt lat="44.73352" lon="5.19465">
        <ele>464</ele>
        <time>2022-12-03T08:48:56Z</time>
      </trkpt>
      <trkpt lat="44.73362" lon="5.19483">
        <ele>465</ele>
        <time>2022-12-03T08:48:56Z</time>
      </trkpt>
      <trkpt lat="44.73373" lon="5.19496">
        <ele>466</ele>
        <time>2022-12-03T08:48:56Z</time>
      </trkpt>
      <trkpt lat="44.73386" lon="5.19524">
        <ele>467</ele>
        <time>2022-12-03T08:48:56Z</time>
      </trkpt>
      <trkpt lat="44.73406" lon="5.19543">
        <ele>468</ele>
        <time>2022-12-03T08:48:56Z</time>
      </trkpt>
      <trkpt lat="44.73451" lon="5.19623">
        <ele>471</ele>
        <time>2022-12-03T08:48:56Z</time>
      </trkpt>
      <trkpt lat="44.73461" lon="5.19627">
        <ele>474</ele>
        <time>2022-12-03T08:48:56Z</time>
      </trkpt>
      <trkpt lat="44.73474" lon="5.19641">
        <ele>476</ele>
        <time>2022-12-03T08:48:56Z</time>
      </trkpt>
      <trkpt lat="44.73478" lon="5.1965">
        <ele>477</ele>
        <time>2022-12-03T08:48:56Z</time>
      </trkpt>
      <trkpt lat="44.73489" lon="5.19662">
        <ele>479</ele>
        <time>2022-12-03T08:48:56Z</time>
      </trkpt>
      <trkpt lat="44.735" lon="5.19663">
        <ele>480</ele>
        <time>2022-12-03T08:48:56Z</time>
      </trkpt>
      <trkpt lat="44.7351" lon="5.19668">
        <ele>481</ele>
        <time>2022-12-03T08:48:56Z</time>
      </trkpt>
      <trkpt lat="44.7351" lon="5.19685">
        <ele>482</ele>
        <time>2022-12-03T08:48:56Z</time>
      </trkpt>
      <trkpt lat="44.73511" lon="5.19696">
        <ele>483</ele>
        <time>2022-12-03T08:48:56Z</time>
      </trkpt>
      <trkpt lat="44.73516" lon="5.19704">
        <ele>484</ele>
        <time>2022-12-03T08:48:56Z</time>
      </trkpt>
      <trkpt lat="44.73513" lon="5.19719">
        <ele>485</ele>
        <time>2022-12-03T08:48:56Z</time>
      </trkpt>
      <trkpt lat="44.73517" lon="5.19733">
        <ele>486</ele>
        <time>2022-12-03T08:48:56Z</time>
      </trkpt>
      <trkpt lat="44.73519" lon="5.19781">
        <ele>488</ele>
        <time>2022-12-03T08:48:56Z</time>
      </trkpt>
      <trkpt lat="44.73525" lon="5.19822">
        <ele>490</ele>
        <time>2022-12-03T08:48:56Z</time>
      </trkpt>
      <trkpt lat="44.73558" lon="5.19918">
        <ele>496</ele>
        <time>2022-12-03T08:48:56Z</time>
      </trkpt>
      <trkpt lat="44.73557" lon="5.19938">
        <ele>500</ele>
        <time>2022-12-03T08:48:56Z</time>
      </trkpt>
      <trkpt lat="44.73566" lon="5.19961">
        <ele>503</ele>
        <time>2022-12-03T08:48:56Z</time>
      </trkpt>
      <trkpt lat="44.7357" lon="5.19989">
        <ele>506</ele>
        <time>2022-12-03T08:48:56Z</time>
      </trkpt>
      <trkpt lat="44.73548" lon="5.20051">
        <ele>508</ele>
        <time>2022-12-03T08:48:56Z</time>
      </trkpt>
      <trkpt lat="44.7354" lon="5.20059">
        <ele>510</ele>
        <time>2022-12-03T08:48:56Z</time>
      </trkpt>
      <trkpt lat="44.73537" lon="5.2007">
        <ele>511</ele>
        <time>2022-12-03T08:48:56Z</time>
      </trkpt>
      <trkpt lat="44.73501" lon="5.20281">
        <ele>508</ele>
        <time>2022-12-03T08:48:56Z</time>
      </trkpt>
      <trkpt lat="44.73514" lon="5.20391">
        <ele>504</ele>
        <time>2022-12-03T08:48:56Z</time>
      </trkpt>
      <trkpt lat="44.73556" lon="5.20457">
        <ele>500</ele>
        <time>2022-12-03T08:48:56Z</time>
      </trkpt>
      <trkpt lat="44.73557" lon="5.20533">
        <ele>497</ele>
        <time>2022-12-03T08:48:56Z</time>
      </trkpt>
      <trkpt lat="44.73545" lon="5.20568">
        <ele>495</ele>
        <time>2022-12-03T08:48:56Z</time>
      </trkpt>
      <trkpt lat="44.73558" lon="5.20646">
        <ele>491</ele>
        <time>2022-12-03T08:48:56Z</time>
      </trkpt>
      <trkpt lat="44.73554" lon="5.20699">
        <ele>487</ele>
        <time>2022-12-03T08:48:56Z</time>
      </trkpt>
      <trkpt lat="44.73547" lon="5.20707">
        <ele>484</ele>
        <time>2022-12-03T08:48:56Z</time>
      </trkpt>
      <trkpt lat="44.73368" lon="5.20748">
        <ele>466</ele>
        <time>2022-12-03T08:48:56Z</time>
      </trkpt>
      <trkpt lat="44.73413" lon="5.20766">
        <ele>455</ele>
        <time>2022-12-03T08:48:56Z</time>
      </trkpt>
      <trkpt lat="44.73459" lon="5.20802">
        <ele>446</ele>
        <time>2022-12-03T08:48:56Z</time>
      </trkpt>
      <trkpt lat="44.73453" lon="5.2088">
        <ele>437</ele>
        <time>2022-12-03T08:48:56Z</time>
      </trkpt>
      <trkpt lat="44.73294" lon="5.20858">
        <ele>427</ele>
        <time>2022-12-03T08:48:56Z</time>
      </trkpt>
      <trkpt lat="44.73194" lon="5.20871">
        <ele>420</ele>
        <time>2022-12-03T08:48:56Z</time>
      </trkpt>
      <trkpt lat="44.73071" lon="5.20819">
        <ele>414</ele>
        <time>2022-12-03T08:48:56Z</time>
      </trkpt>
      <trkpt lat="44.73013" lon="5.20823">
        <ele>410</ele>
        <time>2022-12-03T08:48:56Z</time>
      </trkpt>
      <trkpt lat="44.72972" lon="5.20812">
        <ele>409</ele>
        <time>2022-12-03T08:48:56Z</time>
      </trkpt>
      <trkpt lat="44.72928" lon="5.20828">
        <ele>408</ele>
        <time>2022-12-03T08:48:56Z</time>
      </trkpt>
      <trkpt lat="44.72911" lon="5.20828">
        <ele>407</ele>
        <time>2022-12-03T08:48:56Z</time>
      </trkpt>
      <trkpt lat="44.72852" lon="5.20802">
        <ele>407</ele>
        <time>2022-12-03T08:48:56Z</time>
      </trkpt>
      <trkpt lat="44.72803" lon="5.20801">
        <ele>405</ele>
        <time>2022-12-03T08:48:56Z</time>
      </trkpt>
      <trkpt lat="44.72793" lon="5.20794">
        <ele>404</ele>
        <time>2022-12-03T08:48:56Z</time>
      </trkpt>
      <trkpt lat="44.72787" lon="5.20783">
        <ele>404</ele>
        <time>2022-12-03T08:48:56Z</time>
      </trkpt>
      <trkpt lat="44.72765" lon="5.20686">
        <ele>402</ele>
        <time>2022-12-03T08:48:56Z</time>
      </trkpt>
      <trkpt lat="44.72754" lon="5.20659">
        <ele>402</ele>
        <time>2022-12-03T08:48:56Z</time>
      </trkpt>
      <trkpt lat="44.72744" lon="5.20649">
        <ele>401</ele>
        <time>2022-12-03T08:48:56Z</time>
      </trkpt>
      <trkpt lat="44.72698" lon="5.20617">
        <ele>400</ele>
        <time>2022-12-03T08:48:56Z</time>
      </trkpt>
      <trkpt lat="44.72615" lon="5.20615">
        <ele>397</ele>
        <time>2022-12-03T08:48:56Z</time>
      </trkpt>
      <trkpt lat="44.72568" lon="5.20624">
        <ele>396</ele>
        <time>2022-12-03T08:48:56Z</time>
      </trkpt>
      <trkpt lat="44.72561" lon="5.2062">
        <ele>395</ele>
        <time>2022-12-03T08:48:56Z</time>
      </trkpt>
      <trkpt lat="44.72555" lon="5.20613">
        <ele>394</ele>
        <time>2022-12-03T08:48:56Z</time>
      </trkpt>
      <trkpt lat="44.72549" lon="5.20594">
        <ele>394</ele>
        <time>2022-12-03T08:48:56Z</time>
      </trkpt>
      <trkpt lat="44.72546" lon="5.20574">
        <ele>393</ele>
        <time>2022-12-03T08:48:56Z</time>
      </trkpt>
      <trkpt lat="44.72547" lon="5.20522">
        <ele>392</ele>
        <time>2022-12-03T08:48:56Z</time>
      </trkpt>
      <trkpt lat="44.7254" lon="5.20515">
        <ele>391</ele>
        <time>2022-12-03T08:48:56Z</time>
      </trkpt>
      <trkpt lat="44.72527" lon="5.20514">
        <ele>390</ele>
        <time>2022-12-03T08:48:56Z</time>
      </trkpt>
      <trkpt lat="44.7252" lon="5.20504">
        <ele>390</ele>
        <time>2022-12-03T08:48:56Z</time>
      </trkpt>
      <trkpt lat="44.72525" lon="5.20474">
        <ele>389</ele>
        <time>2022-12-03T08:48:56Z</time>
      </trkpt>
      <trkpt lat="44.72523" lon="5.20456">
        <ele>389</ele>
        <time>2022-12-03T08:48:56Z</time>
      </trkpt>
      <trkpt lat="44.72519" lon="5.20446">
        <ele>388</ele>
        <time>2022-12-03T08:48:56Z</time>
      </trkpt>
      <trkpt lat="44.72512" lon="5.20437">
        <ele>387</ele>
        <time>2022-12-03T08:48:56Z</time>
      </trkpt>
      <trkpt lat="44.72455" lon="5.20396">
        <ele>386</ele>
        <time>2022-12-03T08:48:56Z</time>
      </trkpt>
      <trkpt lat="44.72446" lon="5.20386">
        <ele>386</ele>
        <time>2022-12-03T08:48:56Z</time>
      </trkpt>
      <trkpt lat="44.7244" lon="5.2037">
        <ele>386</ele>
        <time>2022-12-03T08:48:56Z</time>
      </trkpt>
      <trkpt lat="44.72438" lon="5.20355">
        <ele>386</ele>
        <time>2022-12-03T08:48:56Z</time>
      </trkpt>
      <trkpt lat="44.72439" lon="5.20343">
        <ele>386</ele>
        <time>2022-12-03T08:48:56Z</time>
      </trkpt>
      <trkpt lat="44.72456" lon="5.20295">
        <ele>385</ele>
        <time>2022-12-03T08:48:56Z</time>
      </trkpt>
      <trkpt lat="44.72456" lon="5.20283">
        <ele>384</ele>
        <time>2022-12-03T08:48:56Z</time>
      </trkpt>
      <trkpt lat="44.72452" lon="5.20273">
        <ele>383</ele>
        <time>2022-12-03T08:48:56Z</time>
      </trkpt>
      <trkpt lat="44.72443" lon="5.2027">
        <ele>382</ele>
        <time>2022-12-03T08:48:56Z</time>
      </trkpt>
      <trkpt lat="44.72433" lon="5.20276">
        <ele>382</ele>
        <time>2022-12-03T08:48:56Z</time>
      </trkpt>
      <trkpt lat="44.72424" lon="5.20286">
        <ele>382</ele>
        <time>2022-12-03T08:48:56Z</time>
      </trkpt>
      <trkpt lat="44.7241" lon="5.20309">
        <ele>382</ele>
        <time>2022-12-03T08:48:56Z</time>
      </trkpt>
      <trkpt lat="44.72383" lon="5.20333">
        <ele>384</ele>
        <time>2022-12-03T08:48:56Z</time>
      </trkpt>
      <trkpt lat="44.72344" lon="5.20339">
        <ele>385</ele>
        <time>2022-12-03T08:48:56Z</time>
      </trkpt>
      <trkpt lat="44.72244" lon="5.20276">
        <ele>388</ele>
        <time>2022-12-03T08:48:56Z</time>
      </trkpt>
      <trkpt lat="44.72232" lon="5.20273">
        <ele>389</ele>
        <time>2022-12-03T08:48:56Z</time>
      </trkpt>
      <trkpt lat="44.72223" lon="5.20276">
        <ele>391</ele>
        <time>2022-12-03T08:48:56Z</time>
      </trkpt>
      <trkpt lat="44.72178" lon="5.20308">
        <ele>393</ele>
        <time>2022-12-03T08:48:56Z</time>
      </trkpt>
      <trkpt lat="44.72148" lon="5.20317">
        <ele>394</ele>
        <time>2022-12-03T08:48:56Z</time>
      </trkpt>
      <trkpt lat="44.7212" lon="5.20346">
        <ele>397</ele>
        <time>2022-12-03T08:48:56Z</time>
      </trkpt>
      <trkpt lat="44.72111" lon="5.20345">
        <ele>399</ele>
        <time>2022-12-03T08:48:56Z</time>
      </trkpt>
      <trkpt lat="44.72101" lon="5.20336">
        <ele>400</ele>
        <time>2022-12-03T08:48:56Z</time>
      </trkpt>
      <trkpt lat="44.72089" lon="5.20318">
        <ele>400</ele>
        <time>2022-12-03T08:48:56Z</time>
      </trkpt>
      <trkpt lat="44.72052" lon="5.20288">
        <ele>402</ele>
        <time>2022-12-03T08:48:56Z</time>
      </trkpt>
      <trkpt lat="44.72008" lon="5.20235">
        <ele>403</ele>
        <time>2022-12-03T08:48:56Z</time>
      </trkpt>
      <trkpt lat="44.72" lon="5.20229">
        <ele>404</ele>
        <time>2022-12-03T08:48:56Z</time>
      </trkpt>
      <trkpt lat="44.71988" lon="5.20226">
        <ele>404</ele>
        <time>2022-12-03T08:48:56Z</time>
      </trkpt>
      <trkpt lat="44.71977" lon="5.20232">
        <ele>404</ele>
        <time>2022-12-03T08:48:56Z</time>
      </trkpt>
      <trkpt lat="44.71948" lon="5.20278">
        <ele>405</ele>
        <time>2022-12-03T08:48:56Z</time>
      </trkpt>
      <trkpt lat="44.71937" lon="5.20284">
        <ele>405</ele>
        <time>2022-12-03T08:48:56Z</time>
      </trkpt>
      <trkpt lat="44.71923" lon="5.2028">
        <ele>405</ele>
        <time>2022-12-03T08:48:56Z</time>
      </trkpt>
      <trkpt lat="44.7194" lon="5.20353">
        <ele>408</ele>
        <time>2022-12-03T08:48:56Z</time>
      </trkpt>
      <trkpt lat="44.71908" lon="5.20402">
        <ele>427</ele>
        <time>2022-12-03T08:48:56Z</time>
      </trkpt>
      <trkpt lat="44.71867" lon="5.20445">
        <ele>430</ele>
        <time>2022-12-03T08:48:56Z</time>
      </trkpt>
      <trkpt lat="44.71907" lon="5.20466">
        <ele>431</ele>
        <time>2022-12-03T08:48:56Z</time>
      </trkpt>
      <trkpt lat="44.71927" lon="5.20537">
        <ele>435</ele>
        <time>2022-12-03T08:48:56Z</time>
      </trkpt>
      <trkpt lat="44.71932" lon="5.20597">
        <ele>440</ele>
      </trkpt>
      <trkpt lat="44.71937" lon="5.20656">
        <ele>447</ele>
      </trkpt>
      <trkpt lat="44.71941" lon="5.20716">
        <ele>453</ele>
      </trkpt>
      <trkpt lat="44.71946" lon="5.20775">
        <ele>460</ele>
        <time>2022-12-03T08:48:56Z</time>
      </trkpt>
      <trkpt lat="44.71924" lon="5.20823">
        <ele>467</ele>
      </trkpt>
      <trkpt lat="44.71902" lon="5.2087">
        <ele>474</ele>
        <time>2022-12-03T08:48:56Z</time>
      </trkpt>
      <trkpt lat="44.71936" lon="5.20888">
        <ele>481</ele>
      </trkpt>
      <trkpt lat="44.71969" lon="5.20906">
        <ele>487</ele>
        <time>2022-12-03T08:48:56Z</time>
      </trkpt>
      <trkpt lat="44.71923" lon="5.20931">
        <ele>493</ele>
      </trkpt>
      <trkpt lat="44.71876" lon="5.20956">
        <ele>500</ele>
      </trkpt>
      <trkpt lat="44.7183" lon="5.2098">
        <ele>507</ele>
      </trkpt>
      <trkpt lat="44.71783" lon="5.21005">
        <ele>515</ele>
        <time>2022-12-03T08:48:56Z</time>
      </trkpt>
      <trkpt lat="44.71815" lon="5.21038">
        <ele>523</ele>
      </trkpt>
      <trkpt lat="44.71847" lon="5.21071">
        <ele>530</ele>
        <time>2022-12-03T08:48:56Z</time>
      </trkpt>
      <trkpt lat="44.71815" lon="5.21106">
        <ele>538</ele>
      </trkpt>
      <trkpt lat="44.71783" lon="5.2114">
        <ele>546</ele>
        <time>2022-12-03T08:48:56Z</time>
      </trkpt>
      <trkpt lat="44.71771" lon="5.21223">
        <ele>554</ele>
      </trkpt>
      <trkpt lat="44.71759" lon="5.21305">
        <ele>563</ele>
        <time>2022-12-03T08:48:56Z</time>
      </trkpt>
      <trkpt lat="44.7171" lon="5.21344">
        <ele>571</ele>
      </trkpt>
      <trkpt lat="44.7166" lon="5.21383">
        <ele>578</ele>
        <time>2022-12-03T08:48:56Z</time>
      </trkpt>
      <trkpt lat="44.71633" lon="5.21418">
        <ele>585</ele>
      </trkpt>
      <trkpt lat="44.71605" lon="5.21453">
        <ele>591</ele>
        <time>2022-12-03T08:48:56Z</time>
      </trkpt>
      <trkpt lat="44.71614" lon="5.21498">
        <ele>596</ele>
      </trkpt>
      <trkpt lat="44.71622" lon="5.21543">
        <ele>600</ele>
        <time>2022-12-03T08:48:56Z</time>
      </trkpt>
      <trkpt lat="44.71611" lon="5.21631">
        <ele>607</ele>
        <time>2022-12-03T08:48:56Z</time>
      </trkpt>
      <trkpt lat="44.71636" lon="5.21666">
        <ele>610</ele>
      </trkpt>
      <trkpt lat="44.71661" lon="5.21701">
        <ele>614</ele>
      </trkpt>
      <trkpt lat="44.71685" lon="5.21736">
        <ele>619</ele>
      </trkpt>
      <trkpt lat="44.7171" lon="5.21771">
        <ele>622</ele>
        <time>2022-12-03T08:48:56Z</time>
      </trkpt>
      <trkpt lat="44.71677" lon="5.2179">
        <ele>626</ele>
      </trkpt>
      <trkpt lat="44.71645" lon="5.2181">
        <ele>631</ele>
      </trkpt>
      <trkpt lat="44.71612" lon="5.21829">
        <ele>635</ele>
      </trkpt>
      <trkpt lat="44.71579" lon="5.21848">
        <ele>639</ele>
        <time>2022-12-03T08:48:56Z</time>
      </trkpt>
      <trkpt lat="44.71531" lon="5.21867">
        <ele>644</ele>
      </trkpt>
      <trkpt lat="44.71483" lon="5.21886">
        <ele>649</ele>
      </trkpt>
      <trkpt lat="44.71435" lon="5.21904">
        <ele>656</ele>
      </trkpt>
      <trkpt lat="44.71387" lon="5.21923">
        <ele>663</ele>
        <time>2022-12-03T08:48:56Z</time>
      </trkpt>
      <trkpt lat="44.71346" lon="5.21892">
        <ele>670</ele>
      </trkpt>
      <trkpt lat="44.71304" lon="5.21861">
        <ele>676</ele>
        <time>2022-12-03T08:48:56Z</time>
      </trkpt>
      <trkpt lat="44.7127" lon="5.21841">
        <ele>681</ele>
      </trkpt>
      <trkpt lat="44.71237" lon="5.21821">
        <ele>685</ele>
      </trkpt>
      <trkpt lat="44.71203" lon="5.21801">
        <ele>689</ele>
      </trkpt>
      <trkpt lat="44.7117" lon="5.21781">
        <ele>694</ele>
      </trkpt>
      <trkpt lat="44.71136" lon="5.21762">
        <ele>698</ele>
      </trkpt>
      <trkpt lat="44.71102" lon="5.21742">
        <ele>702</ele>
      </trkpt>
      <trkpt lat="44.71069" lon="5.21722">
        <ele>706</ele>
      </trkpt>
      <trkpt lat="44.71035" lon="5.21702">
        <ele>709</ele>
        <time>2022-12-03T08:48:56Z</time>
      </trkpt>
      <trkpt lat="44.71017" lon="5.21641">
        <ele>712</ele>
      </trkpt>
      <trkpt lat="44.70999" lon="5.2158">
        <ele>715</ele>
        <time>2022-12-03T08:48:56Z</time>
      </trkpt>
      <trkpt lat="44.71029" lon="5.21521">
        <ele>721</ele>
      </trkpt>
      <trkpt lat="44.71058" lon="5.21461">
        <ele>727</ele>
      </trkpt>
      <trkpt lat="44.71088" lon="5.21402">
        <ele>734</ele>
      </trkpt>
      <trkpt lat="44.71117" lon="5.21342">
        <ele>739</ele>
        <time>2022-12-03T08:48:56Z</time>
      </trkpt>
      <trkpt lat="44.71102" lon="5.21267">
        <ele>745</ele>
      </trkpt>
      <trkpt lat="44.71086" lon="5.21192">
        <ele>746</ele>
        <time>2022-12-03T08:48:56Z</time>
      </trkpt>
      <trkpt lat="44.71109" lon="5.2111">
        <ele>740</ele>
      </trkpt>
      <trkpt lat="44.71131" lon="5.21028">
        <ele>727</ele>
        <time>2022-12-03T08:48:56Z</time>
      </trkpt>
      <trkpt lat="44.7114" lon="5.20979">
        <ele>715</ele>
      </trkpt>
      <trkpt lat="44.71149" lon="5.20931">
        <ele>703</ele>
      </trkpt>
      <trkpt lat="44.71157" lon="5.20882">
        <ele>692</ele>
      </trkpt>
      <trkpt lat="44.71166" lon="5.20833">
        <ele>682</ele>
        <time>2022-12-03T08:48:56Z</time>
      </trkpt>
      <trkpt lat="44.71167" lon="5.20747">
        <ele>669</ele>
      </trkpt>
      <trkpt lat="44.71168" lon="5.20662">
        <ele>655</ele>
      </trkpt>
      <trkpt lat="44.71169" lon="5.20576">
        <ele>640</ele>
      </trkpt>
      <trkpt lat="44.7117" lon="5.2049">
        <ele>625</ele>
        <time>2022-12-03T08:48:56Z</time>
      </trkpt>
      <trkpt lat="44.71131" lon="5.20432">
        <ele>610</ele>
      </trkpt>
      <trkpt lat="44.71091" lon="5.20374">
        <ele>594</ele>
        <time>2022-12-03T08:48:56Z</time>
      </trkpt>
      <trkpt lat="44.71123" lon="5.20353">
        <ele>585</ele>
      </trkpt>
      <trkpt lat="44.71155" lon="5.20331">
        <ele>576</ele>
        <time>2022-12-03T08:48:56Z</time>
      </trkpt>
      <trkpt lat="44.71125" lon="5.20315">
        <ele>570</ele>
      </trkpt>
      <trkpt lat="44.71095" lon="5.20299">
        <ele>563</ele>
      </trkpt>
      <trkpt lat="44.71035" lon="5.20267">
        <ele>555</ele>
        <time>2022-12-03T08:48:56Z</time>
      </trkpt>
      <trkpt lat="44.71005" lon="5.20334">
        <ele>545</ele>
      </trkpt>
      <trkpt lat="44.70975" lon="5.204">
        <ele>535</ele>
        <time>2022-12-03T08:48:56Z</time>
      </trkpt>
      <trkpt lat="44.70949" lon="5.20352">
        <ele>525</ele>
      </trkpt>
      <trkpt lat="44.70922" lon="5.20303">
        <ele>518</ele>
        <time>2022-12-03T08:48:56Z</time>
      </trkpt>
      <trkpt lat="44.70898" lon="5.20237">
        <ele>510</ele>
      </trkpt>
      <trkpt lat="44.70874" lon="5.20171">
        <ele>502</ele>
      </trkpt>
      <trkpt lat="44.7085" lon="5.20105">
        <ele>493</ele>
      </trkpt>
      <trkpt lat="44.70826" lon="5.20039">
        <ele>479</ele>
        <time>2022-12-03T08:48:56Z</time>
      </trkpt>
      <trkpt lat="44.70853" lon="5.19981">
        <ele>463</ele>
        <time>2022-12-03T08:48:56Z</time>
      </trkpt>
      <trkpt lat="44.7081" lon="5.19981">
        <ele>453</ele>
      </trkpt>
      <trkpt lat="44.70766" lon="5.19981">
        <ele>444</ele>
        <time>2022-12-03T08:48:56Z</time>
      </trkpt>
      <trkpt lat="44.70711" lon="5.1997">
        <ele>436</ele>
      </trkpt>
      <trkpt lat="44.70656" lon="5.19958">
        <ele>429</ele>
        <time>2022-12-03T08:48:56Z</time>
      </trkpt>
      <trkpt lat="44.70605" lon="5.19989">
        <ele>424</ele>
      </trkpt>
      <trkpt lat="44.70553" lon="5.2002">
        <ele>420</ele>
      </trkpt>
      <trkpt lat="44.70502" lon="5.20051">
        <ele>416</ele>
      </trkpt>
      <trkpt lat="44.7045" lon="5.20082">
        <ele>412</ele>
        <time>2022-12-03T08:48:56Z</time>
      </trkpt>
      <trkpt lat="44.70409" lon="5.20047">
        <ele>405</ele>
      </trkpt>
      <trkpt lat="44.70367" lon="5.20011">
        <ele>399</ele>
      </trkpt>
      <trkpt lat="44.70326" lon="5.19976">
        <ele>391</ele>
      </trkpt>
      <trkpt lat="44.70284" lon="5.19941">
        <ele>381</ele>
        <time>2022-12-03T08:48:56Z</time>
      </trkpt>
      <trkpt lat="44.70235" lon="5.19932">
        <ele>371</ele>
      </trkpt>
      <trkpt lat="44.70187" lon="5.19924">
        <ele>359</ele>
      </trkpt>
      <trkpt lat="44.70138" lon="5.19915">
        <ele>349</ele>
      </trkpt>
      <trkpt lat="44.70089" lon="5.19906">
        <ele>342</ele>
        <time>2022-12-03T08:48:56Z</time>
      </trkpt>
      <trkpt lat="44.7006" lon="5.19876">
        <ele>336</ele>
      </trkpt>
      <trkpt lat="44.7003" lon="5.19845">
        <ele>328</ele>
      </trkpt>
      <trkpt lat="44.70001" lon="5.19815">
        <ele>321</ele>
      </trkpt>
      <trkpt lat="44.69971" lon="5.19785">
        <ele>314</ele>
        <time>2022-12-03T08:48:56Z</time>
      </trkpt>
      <trkpt lat="44.6991" lon="5.19807">
        <ele>306</ele>
        <time>2022-12-03T08:48:56Z</time>
      </trkpt>
      <trkpt lat="44.699" lon="5.19817">
        <ele>302</ele>
        <time>2022-12-03T08:48:56Z</time>
      </trkpt>
      <trkpt lat="44.6987" lon="5.19861">
        <ele>298</ele>
      </trkpt>
      <trkpt lat="44.69839" lon="5.19904">
        <ele>295</ele>
        <time>2022-12-03T08:48:56Z</time>
      </trkpt>
      <trkpt lat="44.69793" lon="5.19958">
        <ele>292</ele>
      </trkpt>
      <trkpt lat="44.69746" lon="5.20012">
        <ele>288</ele>
        <time>2022-12-03T08:48:56Z</time>
      </trkpt>
      <trkpt lat="44.69737" lon="5.20009">
        <ele>285</ele>
        <time>2022-12-03T08:48:56Z</time>
      </trkpt>
      <trkpt lat="44.69734" lon="5.2">
        <ele>283</ele>
        <time>2022-12-03T08:48:56Z</time>
      </trkpt>
      <trkpt lat="44.69699" lon="5.19975">
        <ele>280</ele>
        <time>2022-12-03T08:48:56Z</time>
      </trkpt>
    </trkseg>
  </trk>
</gpx>